Regional Weather Roundup
Issued by NWS

Home | Current Version | Previous Version | Graphics & Text | Print | Product List | Glossary On
Versions: 1 2 3 4 5 6 7 8 9 10 11 12 13 14 15 16 17 18 19 20 21 22 23 24 25 26 27 28 29 30 31 32 33 34 35 36 37 38 39 40 41 42 43 44 45 46 47 48 49 50
000
ASUS43 KLSX 171507
RWRMO

WEATHER SUMMARY FOR MISSOURI
NATIONAL WEATHER SERVICE SPRINGFIELD MO
900 AM CST TUE JAN 17 2017

NOTE: "FAIR" INDICATES FEW OR NO CLOUDS BELOW 12,000 FEET WITH NO
       SIGNIFICANT WEATHER AND/OR OBSTRUCTIONS TO VISIBILITY.
       CURRENT SKY AND/OR WEATHER CONDITIONS ARE NOT AVAILABLE FOR
       CHILLICOTHE AND FARMINGTON.

MOZ001>031-035>038-043-044-053-054-171600-
...NORTHERN AND WESTERN MISSOURI...

CITY           SKY/WX    TMP DP  RH WIND       PRES   REMARKS
KANSAS CTY INT CLOUDY    34  34 100 W6        30.08R FOG     WCI  29
KANSAS C DTWN  CLOUDY    36  34  92 W6        30.09R
LEE`S SUMMIT   CLOUDY    35  33  92 W8        30.08R FOG     WCI  29
ST JOSEPH      CLOUDY    34  34 100 W7        30.09R FOG     WCI  28
CHILLICOTHE      N/A     35  34  96 VRB6      30.05R
KIRKSVILLE     CLOUDY    35  34  96 W10       30.01R FOG     WCI  27

$$
MOZ066>068-077>081-088>096-101>105-171600-
...SOUTHWEST MISSOURI...

CITY           SKY/WX    TMP DP  RH WIND       PRES   REMARKS
SPRINGFIELD    CLOUDY    37  35  92 W12       30.08R FOG     WCI  29
JOPLIN         CLOUDY    37  36  96 W8        30.13R
BRANSON        CLOUDY    39  34  81 W8        30.10R

$$
MOZ032>034-039>042-045>050-055>058-069>072-171600-
...CENTRAL MISSOURI...

CITY           SKY/WX    TMP DP  RH WIND       PRES   REMARKS
COLUMBIA       CLOUDY    38  37  97 W9        30.03S FOG
JEFFERSON CITY CLOUDY    39  37  92 W12       30.05S
ROLLA          CLOUDY    39  37  92 W12       30.01F
SEDALIA        CLOUDY    37  36  96 W10       30.07R FOG     WCI  30
WHITEMAN AFB   DRIZZLE   36  36 100 W9        30.06R FOG     WCI  29
WARRENSBURG    CLOUDY    34  34 100 W6        30.08R WCI  29
OSAGE BEACH    CLOUDY    39  36  89 W10G16    30.06S

$$
MOZ051-052-059>065-171600-
...EAST CENTRAL MISSOURI...

CITY           SKY/WX    TMP DP  RH WIND       PRES   REMARKS
ST LOUIS INTL  PTSUNNY   45  38  76 W15       30.00R
SPIRIT OF STL  CLOUDY    43  39  86 W12       30.02R
ST CHARLES     CLOUDY    43  39  86 W9        30.01R

$$
MOZ072>076-082>087-097>100-106>115-171600-
...SOUTH CENTRAL AND SOUTHEAST MISSOURI...

CITY           SKY/WX    TMP DP  RH WIND       PRES   REMARKS
CAPE GIRARDEAU PTSUNNY   44  39  82 SW7       30.05R
FARMINGTON     CLOUDY    41  37  86 NW8       30.03R
POPLAR BLUFF   CLOUDY    43  38  82 SW6       30.08R
WEST PLAINS    CLOUDY    40  37  89 W9        30.07R

$$



USA.gov is the U.S. government's official web portal to all federal, state and local government web resources and services.